Location: Unspecified
(0.0000°N, 0.0000°E)
Time: 13:55:37
(UTC+00:00)

STARLINK-34921 - Pass Details

Date: 20 February 2026
Orbit: 474 x 476 km, 53.2° (Epoch: 14 March)

Event Time Altitude Azimuth Distance (km) Brightness Sun altitude
Rises 20:11:30 0° 225° (SW) 2,513 6.8 -28.9°
Reaches altitude 10° 20:13:44 10° 232° (SW) 1,633 5.8 -29.4°
Enters shadow 20:15:13 21° 244° (WSW) 1,096 4.8 -29.8°
